Home > Weather > Paterson > Past weeks

Flag for USA Past Weather in Paterson, New Jersey, USA — Yesterday and Last 2 Weeks

Now
79 °F

Overcast.


Feels Like: 81 °F
Forecast: 77 / 93 °F
Wind: 5 mph from Southwest

Location: Essex County Airport

Current Time: Jul 25, 2016 at 8:02:59 AM

Latest Report: Jul 25, 2016 at 6:53 AM


Visibility: 10 mi

Pressure: 29.96 "Hg

Humidity: 65%

Dew Point: 66 °F

Location of PatersonLocation

Past Weather in Paterson — Graph

°F

Paterson Temperature Yesterday

Maximum temperature yesterday: 94 °F (at 4:53 PM)
Minimum temperature yesterday: 67 °F (at 4:53 AM)
Average temperature yesterday: 82 °F

High & Low Weather Summary for the Past Weeks

 TemperatureHumidityPressure
High96 °F (Jul 23, 3:53 PM)96% (Jul 10, 6:53 AM)30.26 "Hg (Jul 10, 6:53 AM)
Low61 °F (Jul 11, 4:53 AM)23% (Jul 23, 3:53 PM)29.78 "Hg (Jul 22, 6:53 PM)
Average79 °F62%30.02 "Hg
* Reported Jul 10 6:53 AM — Jul 25 6:53 AM, Paterson, Weather by CustomWeather, © 2016

Note: Actual official high and low records may vary slightly from our data, if they occured in-between our weather recording intervals... More about our weather records

Advertising

Paterson Weather History for the Previous 24 Hours

Scroll right to see more
 ConditionsComfort  
Time TempWeatherWind HumidityBarometerVisibility
6:53 AM
Mon, Jul 25
79 °FOvercast.5 mph65%29.96 "Hg10 mi
5:53 AM79 °FMostly cloudy.5 mph65%29.95 "Hg10 mi
4:53 AM80 °FOvercast.3 mph60%29.94 "Hg10 mi
3:53 AM80 °FOvercast.3 mph60%29.95 "Hg10 mi
2:53 AM81 °FPassing clouds.3 mph60%29.94 "Hg10 mi
1:53 AM80 °FClear.3 mph64%29.96 "Hg10 mi
12:53 AM80 °FClear.No wind64%29.97 "Hg10 mi
11:53 PM
Sun, Jul 24
81 °FClear.No wind62%29.97 "Hg10 mi
10:53 PM83 °FClear.3 mph59%29.98 "Hg10 mi
9:53 PM84 °FClear.3 mph55%29.97 "Hg10 mi
8:53 PM85 °FSunny.No wind51%29.95 "Hg10 mi
7:53 PM89 °FSunny.3 mph42%29.94 "Hg10 mi
6:53 PM91 °FSunny.3 mph39%29.94 "Hg10 mi
5:53 PM92 °FPassing clouds.6 mph40%29.94 "Hg10 mi
4:53 PM94 °FSunny.8 mph30%29.94 "Hg10 mi
3:53 PM92 °FSunny.5 mph31%29.94 "Hg10 mi
2:53 PM92 °FSunny.9 mph31%29.96 "Hg10 mi
1:53 PM92 °FSunny.5 mph32%29.98 "Hg10 mi
12:53 PM90 °FSunny.7 mph34%29.98 "Hg10 mi
11:53 AM87 °FSunny.3 mph42%29.99 "Hg10 mi
10:53 AM87 °FSunny.No wind43%30.00 "Hg10 mi
9:53 AM83 °FSunny.No wind48%30.01 "Hg10 mi
8:53 AM80 °FSunny.No wind52%30.01 "Hg10 mi
Weather by CustomWeather, © 2016

See weather overviewHow to use our weather pages